Weather History for Rickenbacker, OH

Change the Weather History Date:

Sunday, December 22, 2013

  Actual Average Record
Temperature  
Mean Temperature 56 °F -  
Max Temperature 67 °F 36 °F 67 °F (2013)
Min Temperature 44 °F 22 °F 3 °F (2000)
Degree Days  
Heating Degree Days 10    
Growing Degree Days 6 (Base 50)    
Moisture  
Dew Point 49 °F    
Average Humidity 75    
Maximum Humidity 86    
Minimum Humidity 61    
Precipitation  
Precipitation 0.00 in - - ()
Sea Level Pressure  
Sea Level Pressure 29.78 in    
Wind  
Wind Speed 17 mph (SW)    
Max Wind Speed 31 mph    
Max Gust Speed 37 mph    
Visibility 10 miles    
Events Rain    
Averages and records for this station are not official NWS values.
T = Trace of Precipitation, MM = Missing Value Source: NWS Daily Summary

Daily Weather History Graph

Daily Weather History Graph

Search for Another Location

Airport:

Trip Planner

Search our weather history database for the weather conditions in past years. The results will help you decide how hot, cold, wet, or windy it might be!

Date:

Astronomy

Dec. 22, 2013 Rise Set
Actual Time 7:50 AM EST 5:10 PM EST
Civil Twilight 7:19 AM EST 5:41 PM EST
Nautical Twilight 6:45 AM EST 6:15 PM EST
Astronomical Twilight 6:12 AM EST 6:48 PM EST
Moon 10:22 PM EST 10:46 AM EST
Length of Visible Light 10h 21m
Length of Day
9h 20m
Waning Gibbous, 77% of the Moon is Illuminated
Dec 22
Waning Gibbous
Dec 25
Last Quarter
Jan 1
New
Jan 7
First Quarter
Jan 15
Full

Hourly Weather History & Observations

Time (EST) Temp. Windchill Dew Point Humidity Pressure Visibility Wind Dir Wind Speed Gust Speed Precip Events Conditions
12:15 AM 67.5 °F - 57.2 °F 70% 29.55 in 5.0 mi WSW 31.1 mph 35.7 mph N/A Rain Heavy Rain
12:35 AM 64.6 °F - 58.8 °F 82% 29.56 in 3.0 mi WSW 24.2 mph 35.7 mph N/A Rain Rain
12:55 AM 63.3 °F - 58.8 °F 85% 29.59 in 7.0 mi WSW 15.0 mph 24.2 mph N/A Rain Rain
1:15 AM 63.0 °F - 58.5 °F 85% 29.62 in 7.0 mi SW 12.7 mph 18.4 mph N/A Rain Rain
1:35 AM 62.6 °F - 58.1 °F 85% 29.63 in 10.0 mi SW 12.7 mph 18.4 mph N/A Rain Light Rain
1:55 AM 62.4 °F - 57.6 °F 84% 29.67 in 10.0 mi SW 11.5 mph - N/A Rain Light Rain
2:15 AM 62.1 °F - 57.6 °F 85% 29.67 in 10.0 mi SW 13.8 mph 20.7 mph N/A Rain Light Rain
2:35 AM 61.9 °F - 57.4 °F 85% 29.66 in 10.0 mi South 10.4 mph 18.4 mph N/A Rain Light Rain
2:55 AM 61.5 °F - 57.2 °F 86% 29.67 in 10.0 mi South 12.7 mph - N/A Rain Light Rain
3:15 AM 61.2 °F - 56.8 °F 86% 29.67 in 10.0 mi South 12.7 mph - N/A Rain Light Rain
3:35 AM 60.6 °F - 56.3 °F 86% 29.66 in 10.0 mi South 17.3 mph - N/A Rain Light Rain
3:55 AM 60.3 °F - 56.1 °F 86% 29.64 in 10.0 mi South 18.4 mph 23.0 mph N/A Rain Light Rain
4:15 AM 60.4 °F - 55.9 °F 85% 29.64 in 10.0 mi South 16.1 mph 23.0 mph N/A Rain Light Rain
4:35 AM 60.3 °F - 55.8 °F 85% 29.62 in 10.0 mi SSE 19.6 mph 23.0 mph N/A Rain Light Rain
4:55 AM 60.3 °F - 55.8 °F 85% 29.61 in 10.0 mi SSE 19.6 mph 25.3 mph N/A Rain Light Rain
5:15 AM 60.3 °F - 55.6 °F 85% 29.63 in 10.0 mi South 26.5 mph 31.1 mph N/A Rain Light Rain
5:35 AM 60.6 °F - 55.4 °F 83% 29.63 in 10.0 mi South 23.0 mph 31.1 mph N/A Rain Light Rain
5:55 AM 60.8 °F - 54.9 °F 81% 29.61 in 10.0 mi South 23.0 mph 34.5 mph N/A Rain Rain
6:15 AM 60.8 °F - 54.3 °F 79% 29.57 in 10.0 mi SSE 25.3 mph 36.8 mph N/A   Light Drizzle
6:35 AM 60.8 °F - 54.1 °F 79% 29.63 in 10.0 mi South 27.6 mph 36.8 mph N/A   Mostly Cloudy
6:55 AM 60.8 °F - 53.8 °F 78% 29.60 in 10.0 mi South 20.7 mph 29.9 mph N/A   Mostly Cloudy
7:15 AM 61.0 °F - 53.2 °F 76% 29.65 in 10.0 mi South 21.9 mph 28.8 mph N/A   Overcast
7:35 AM 61.2 °F - 53.1 °F 75% 29.66 in 10.0 mi South 16.1 mph 27.6 mph N/A   Overcast
7:55 AM 60.8 °F - 53.2 °F 76% 29.68 in 10.0 mi South 20.7 mph 26.5 mph N/A   Overcast
8:15 AM 60.8 °F - 53.4 °F 77% 29.70 in 10.0 mi South 17.3 mph 27.6 mph N/A   Overcast
8:35 AM 60.6 °F - 53.6 °F 78% 29.69 in 10.0 mi South 17.3 mph 25.3 mph N/A   Overcast
8:55 AM 60.6 °F - 53.4 °F 77% 29.70 in 10.0 mi South 15.0 mph 23.0 mph N/A   Overcast
9:15 AM 60.4 °F - 53.4 °F 78% 29.72 in 10.0 mi SSW 15.0 mph 23.0 mph N/A Rain Rain
9:35 AM 60.1 °F - 53.8 °F 80% 29.73 in 3.0 mi SW 20.7 mph 32.2 mph N/A Rain Rain
9:55 AM 58.8 °F - 53.1 °F 81% 29.74 in 10.0 mi SW 13.8 mph 25.3 mph N/A   Overcast
10:15 AM 59.2 °F - 53.6 °F 82% 29.76 in 10.0 mi SW 13.8 mph - N/A   Overcast
10:35 AM 59.4 °F - 53.2 °F 80% 29.77 in 10.0 mi SW 15.0 mph 24.2 mph N/A   Overcast
10:55 AM 59.7 °F - 52.3 °F 77% 29.78 in 10.0 mi SW 19.6 mph 25.3 mph N/A   Overcast
11:15 AM 59.9 °F - 50.7 °F 72% 29.78 in 10.0 mi SW 19.6 mph 26.5 mph N/A   Overcast
11:35 AM 60.4 °F - 50.9 °F 71% 29.80 in 10.0 mi SSW 18.4 mph 24.2 mph N/A   Mostly Cloudy
11:55 AM 60.3 °F - 49.3 °F 67% 29.79 in 10.0 mi SW 20.7 mph 27.6 mph N/A   Mostly Cloudy
12:15 PM 59.4 °F - 45.9 °F 61% 29.80 in 10.0 mi WSW 23.0 mph 28.8 mph N/A   Scattered Clouds
12:35 PM 59.0 °F - 46.8 °F 64% 29.80 in 10.0 mi WSW 15.0 mph - N/A   Clear
12:55 PM 58.8 °F - 46.9 °F 65% 29.80 in 10.0 mi SW 19.6 mph 25.3 mph N/A   Clear
1:15 PM 58.3 °F - 45.3 °F 62% 29.81 in 10.0 mi WSW 24.2 mph 33.4 mph N/A   Clear
1:35 PM 58.5 °F - 45.0 °F 61% 29.81 in 10.0 mi SW 15.0 mph 21.9 mph N/A   Clear
1:55 PM 57.9 °F - 45.9 °F 64% 29.81 in 10.0 mi WSW 17.3 mph 20.7 mph N/A   Scattered Clouds
2:15 PM 57.6 °F - 45.5 °F 64% 29.82 in 10.0 mi SW 16.1 mph 21.9 mph N/A   Scattered Clouds
2:35 PM 57.2 °F - 44.8 °F 63% 29.82 in 10.0 mi SW 16.1 mph 21.9 mph N/A   Scattered Clouds
2:55 PM 56.5 °F - 43.7 °F 62% 29.84 in 10.0 mi SW 15.0 mph 20.7 mph N/A   Clear
3:15 PM 56.3 °F - 43.3 °F 62% 29.84 in 10.0 mi SW 12.7 mph 24.2 mph N/A   Clear
3:35 PM 55.8 °F - 42.8 °F 62% 29.84 in 10.0 mi SW 16.1 mph 23.0 mph N/A   Clear
3:55 PM 55.6 °F - 43.0 °F 63% 29.85 in 10.0 mi SW 12.7 mph 20.7 mph N/A   Clear
4:15 PM 55.2 °F - 43.2 °F 64% 29.86 in 10.0 mi SW 10.4 mph - N/A   Clear
4:35 PM 54.5 °F - 43.0 °F 65% 29.87 in 10.0 mi WSW 10.4 mph 17.3 mph N/A   Scattered Clouds
4:55 PM 54.1 °F - 42.8 °F 66% 29.87 in 10.0 mi WSW 12.7 mph - N/A   Scattered Clouds
5:15 PM 53.4 °F - 43.2 °F 68% 29.88 in 10.0 mi WSW 10.4 mph - N/A   Scattered Clouds
5:35 PM 52.3 °F - 43.5 °F 72% 29.88 in 10.0 mi WSW 11.5 mph - N/A   Scattered Clouds
5:55 PM 51.8 °F - 42.8 °F 71% 29.88 in 10.0 mi WSW 9.2 mph - N/A   Scattered Clouds
6:15 PM 51.4 °F - 42.3 °F 71% 29.92 in 10.0 mi WSW 12.7 mph - N/A   Scattered Clouds
6:35 PM 52.0 °F - 41.7 °F 68% 29.92 in 10.0 mi West 11.5 mph - N/A   Overcast
6:55 PM 51.3 °F - 41.7 °F 70% 29.92 in 10.0 mi West 8.1 mph - N/A   Overcast
7:15 PM 50.4 °F - 41.2 °F 71% 29.93 in 10.0 mi West 10.4 mph - N/A   Overcast
7:35 PM 50.0 °F - 41.0 °F 71% 29.95 in 10.0 mi West 9.2 mph - N/A   Overcast
7:55 PM 49.5 °F - 40.8 °F 72% 29.95 in 10.0 mi Calm Calm - N/A   Overcast
8:15 PM 48.9 °F - 41.0 °F 74% 29.95 in 10.0 mi Calm Calm - N/A   Overcast
8:35 PM 48.7 °F - 41.7 °F 77% 29.96 in 10.0 mi WSW 3.5 mph - N/A   Overcast
8:55 PM 49.1 °F - 41.4 °F 75% 29.95 in 10.0 mi SSW 3.5 mph - N/A   Overcast
9:15 PM 49.1 °F - 41.7 °F 76% 29.95 in 10.0 mi Calm Calm - N/A   Overcast
9:35 PM 49.1 °F - 41.9 °F 76% 29.95 in 10.0 mi SSW 4.6 mph - N/A   Overcast
9:55 PM 49.3 °F - 41.4 °F 74% 29.95 in 10.0 mi SW 3.5 mph - N/A   Overcast
10:15 PM 49.3 °F - 41.4 °F 74% 29.96 in 10.0 mi West 4.6 mph - N/A   Overcast
10:35 PM 49.1 °F - 41.4 °F 75% 29.96 in 10.0 mi West 4.6 mph - N/A   Overcast
10:55 PM 48.6 °F - 40.6 °F 74% 29.97 in 10.0 mi WNW 13.8 mph - N/A   Overcast
11:15 PM 46.0 °F 41.4 °F 39.0 °F 76% 30.00 in 10.0 mi NW 9.2 mph - N/A   Overcast
11:35 PM 44.8 °F 39.0 °F 37.9 °F 77% 30.00 in 10.0 mi WNW 11.5 mph - N/A   Overcast
11:55 PM 44.2 °F 38.8 °F 37.6 °F 77% 30.00 in 10.0 mi NW 10.4 mph - N/A   Overcast